Powrót do katalogu

STARLINK-31392

AktywnyŁącznośćVLEO
NORAD 59530·PAYLOAD·🇺🇸 United States

Wystrzelony Apr 17, 2024 z Cape Canaveral Space Force Station

Loading…

Następne Przeloty (najbliższe 24 godziny)

TLE

ŚwieżeSource: CelesTrak SupGP

Epoka: Sep 14, 2026, 22:22 UTC

1 59530C 24073V   26257.93243056 -.00016202  00000+0 -58677-3 0  2577
2 59530  43.0024 329.3197 0001357 269.4925 221.8540 15.27590079    12

Śledź STARLINK-31392 w czasie rzeczywistym z AllMySat

Download on the App Store